Showing default

GOES 19, 60133

Orbit data source: Space-Track

GOES 19, 60133 is a payload satellite owned by NOAA (US) in GEO that was launched on Tue, 25 Jun 2024 UTC via an FALCON HEAVY launch vehicle from the Air Force Eastern Test Range (AFETR). Payload-class satellites include a variety of spacecraft equipped with specific instruments for various scientific and technological missions. These include communications satellites like Starlink; space stations such as the ISS; scientific satellites like the Hubble; Earth observation satellites from companies like Planet Labs, Umbra, and HawkEye 360; GPS; miniature CubeSats for education and research; and military/defense satellites.

Loading next visibility...
Identifier
60133, 2024-119A
Orbit
GEO
Country
Flag of USUS
Related business
Manufacturer
LMCSS
Mission
Operational Civil Weather
Bus & Motor
A2100, LEROS-1C
Mass
~5,000 kg wet, 2,925 kg dry
Launch date (UTC)
2024-06-25 (2 years ago)
Launch vehicle
FALCON HEAVY
Launch site
Air Force Eastern Test Range (AFETR)
Object type
Payload
Rocket body
Debris
Shape & HBR
Box + 1 Pan + 1 Rod, 20.0 m
Radar Cross Section
37.561 m², Large (>1 m²)

Expand to show TLE details & history
Last TLE update: 14 hours ago

TLE from 14 hours ago
0 GOES 19
1 60133U 24119A   26257.48894609 -.00000257  00000-0  00000-0 0  9995
2 60133   0.0268  24.1370 0000330 231.4080 198.7486  1.00273710  7867
Epoch: 2026-09-14T11:44Z
TLE epoch observation values (Epoch: 2026-09-14T11:44:04.942Z)
Latitude
-0.00649°
Longitude
-75.20181°
Altitude
35,786.858 km
Speed
3.075 km/s
True Right ascension
06h 17m 08s
True Declination
0° 00' 23"
Sunlit
Object was in daylight at epoch
Visualization orbit readout
Latitude
Unknown
Longitude
Unknown
Altitude
Unknown
Speed
Unknown
Apparent Right ascension
Unknown
Apparent Declination
Unknown
Sunlit
N/A
Visualization observer readout
Local Sidereal Time
17:58:00
Azimuth
Unknown
Elevation
Unknown
Doppler factor
Unknown
Orbital elements
Apogee altitude
35,788.517 km
Perigee altitude
35,785.734 km
Semi-major axis
42,165.263 km
Eccentricity
0.00003
Inclination
0.0268°
RAAN
24.137°
Arg. of periapsis
231.408°
True anomaly
198.74738°
Mean anomaly
198.7486°
Eccentric anomaly
198.74799°
Mean motion
0.25067 °/min
Orbital period
1,436.12 mins
BSTAR
0
Loading maneuver chart data...
Computing Atmospheric mass density...
Loading historical data...
Loading historical data...
Loading historical data...
Loading historical data...
Loading historical data...
Loading historical data...
Loading historical data...
Other satellites on launch #119 in the year 2024 (2024-06-25 UTC)

Documentation

Showing up to 5 results
|